Regional Weather Roundup
Issued by NWS

Home | Current Version | Previous Version | Graphics & Text | Print | Product List | Glossary On
Versions: 1 2 3 4 5 6 7 8 9 10 11 12 13 14 15 16 17 18 19 20 21 22 23 24 25 26 27 28 29 30 31 32 33 34 35 36 37 38 39 40 41 42 43 44 45 46 47 48 49 50
000
ASUS45 KBOI 281810
RWRID
WEATHER ROUNDUP FOR IDAHO
NATIONAL WEATHER SERVICE BOISE ID
1100 AM MST SUN DEC 28 2014

NOTE: "FAIR" INDICATES FEW OR NO CLOUDS BELOW 12000 FEET
WITH NO SIGNIFICANT WEATHER AND/OR OBSTRUCTIONS TO VISIBILITY

IDZ012-014-281900-
SOUTHWEST IDAHO


CITY           SKY/WX    TMP DP  RH WIND       PRES   REMARKS
BOISE          LGT SNOW  30  29  96 CALM      30.12R VSB 3/4
CALDWELL       CLOUDY    28  21  74 E5        30.15R VSB 1/2 WCI  23
MOUNTAIN HOME  DRIZZLE   32  28  86 NW3       30.12R
$$

IDZ016-017-281900-
SOUTHCENTRAL IDAHO


CITY           SKY/WX    TMP DP  RH WIND       PRES   REMARKS
BURLEY         MOSUNNY   31  26  82 W17G25    30.03R WCI  19
JEROME         CLOUDY    28  27  96 SW15      30.07R WCI  16
TWIN FALLS     PTSUNNY   31  24  75 SW13      30.07R WCI  21
$$

IDZ019>023-281900-
SOUTHEAST IDAHO


CITY           SKY/WX    TMP DP  RH WIND       PRES   REMARKS
IDAHO FALLS    CLOUDY    20  16  84 N7        30.00R FOG     WCI  11
POCATELLO      PTSUNNY   26  23  88 SW22      30.04R WCI  12
REXBURG        LGT SNOW  22  21  96 S7        29.97S FOG     WCI  13
$$

IDZ006-010-011-018-031-032-281900-
CENTRAL IDAHO MOUNTAINS


CITY           SKY/WX    TMP DP  RH WIND       PRES   REMARKS
MCCALL         CLOUDY    22  19  89 S3        29.98R
HAILEY         MOSUNNY   19  12  73 NW12      29.99R WCI   7
STANLEY          N/A     21  15  78 CALM      29.96R
SALMON         PTSUNNY   21  12  68 CALM      30.00R
CHALLIS        CLOUDY    15  10  80 CALM      29.97R
$$

IDZ002-004-006-007-026-281900-
NORTHERN IDAHO


CITY           SKY/WX    TMP DP  RH WIND       PRES   REMARKS
LEWISTON       CLOUDY    39  33  79 CALM      30.08R
LOWELL         NOT AVBL
COEUR D`ALENE  CLOUDY    30  27  86 W7        30.03R WCI  23
MULLAN PASS    SNOW      24  19  81 VRB3      29.86R VSB 1/2
$$



USA.gov is the U.S. government's official web portal to all federal, state and local government web resources and services.